TimeCST,TemperatureF,Dew PointF,Humidity,Sea Level PressureIn,VisibilityMPH,Wind Direction,Wind SpeedMPH,Gust SpeedMPH,PrecipitationIn,Events,Conditions,WindDirDegrees,DateUTC
12:52 AM,42.1,28.9,60,30.08,10.0,ENE,9.2,-,N/A,,Clear,70,2013-02-06 06:52:00
1:52 AM,37.0,28.0,70,30.09,10.0,ESE,4.6,-,N/A,,Clear,110,2013-02-06 07:52:00
2:52 AM,36.0,28.0,73,30.10,10.0,SE,4.6,-,N/A,,Clear,130,2013-02-06 08:52:00
3:52 AM,37.0,28.0,70,30.10,10.0,ESE,6.9,-,N/A,,Clear,110,2013-02-06 09:52:00
4:52 AM,36.0,27.0,70,30.11,10.0,ESE,5.8,-,N/A,,Clear,120,2013-02-06 10:52:00
5:52 AM,35.1,27.0,72,30.12,10.0,SSE,5.8,-,N/A,,Clear,150,2013-02-06 11:52:00
6:52 AM,35.6,28.4,75,30.12,10.0,SSE,11.5,-,N/A,,Clear,150,2013-02-06 12:52:00
7:52 AM,37.9,28.9,70,30.15,10.0,SSE,13.8,-,N/A,,Clear,160,2013-02-06 13:52:00
8:52 AM,42.1,30.0,62,30.15,10.0,SSE,20.7,28.8,N/A,,Clear,150,2013-02-06 14:52:00
9:52 AM,46.9,30.9,54,30.13,10.0,SE,16.1,25.3,N/A,,Clear,140,2013-02-06 15:52:00
10:52 AM,50.0,30.9,48,30.13,10.0,SE,17.3,-,N/A,,Clear,140,2013-02-06 16:52:00
11:52 AM,54.0,32.0,43,30.10,10.0,SSE,18.4,-,N/A,,Clear,150,2013-02-06 17:52:00
12:52 PM,57.9,32.0,37,30.06,10.0,SSE,18.4,-,N/A,,Clear,150,2013-02-06 18:52:00
1:52 PM,55.9,33.1,42,30.03,10.0,SSE,18.4,-,N/A,,Clear,150,2013-02-06 19:52:00
2:52 PM,55.0,34.0,45,30.02,10.0,SSE,19.6,25.3,N/A,,Clear,150,2013-02-06 20:52:00
3:52 PM,55.0,35.1,47,29.99,10.0,SE,19.6,-,N/A,,Clear,130,2013-02-06 21:52:00
4:52 PM,55.9,36.0,47,29.98,10.0,SSE,17.3,-,N/A,,Clear,150,2013-02-06 22:52:00
5:52 PM,53.1,36.0,52,29.99,10.0,SSE,17.3,-,N/A,,Clear,150,2013-02-06 23:52:00
6:52 PM,51.1,35.1,54,29.99,10.0,SSE,20.7,31.1,N/A,,Clear,150,2013-02-07 00:52:00
7:52 PM,50.0,35.1,57,29.99,10.0,SE,19.6,-,N/A,,Clear,140,2013-02-07 01:52:00
8:52 PM,48.9,35.1,59,29.99,10.0,SSE,20.7,-,N/A,,Clear,150,2013-02-07 02:52:00
9:52 PM,48.2,35.6,62,29.97,10.0,SSE,19.6,-,N/A,,Clear,150,2013-02-07 03:52:00
10:52 PM,46.4,37.4,71,29.97,10.0,SSE,18.4,28.8,N/A,,Clear,150,2013-02-07 04:52:00